Tracking 33485 objects as of 15-Mar-2026
HD Live streaming from Space Station
objects crossing your sky now

STARLINK-35318

Track STARLINK-35318 now!
10-day predictions
STARLINK-35318 is classified as:


NORAD ID: 66146
Int'l Code: 2025-240A
Perigee: 481.5 km
Apogee: 483.1 km
Inclination: 53.2 °
Period: 94.1 minutes
Semi major axis: 6853 km
RCS: Unknown
Launch date: October 25, 2025
Source: United States (US)
Launch site: AIR FORCE EASTERN TEST RANGE (AFETR)
Your satellite tracking list
Your tracking list is empty




NASA's NSSDC Master Catalog

Two Line Element Set (TLE):
1 66146U 25240A   26073.90483998  .00046535  00000-0  15720-2 0  9994
2 66146  53.1600  38.8264 0001178  89.1050 271.0086 15.30229573 22837
Source of the keplerian elements: AFSPC